This is the latest recevied weather packets stored in our database for station/object K4LEN. If no packets are shown the sender has not sent any weather packets the latest 1 day(s).
| Time | Temp. | Humidity | Pressure | Rain* | Wind** | Luminosity | Snow |
|---|---|---|---|---|---|---|---|
| 1777978091 | 13.89° C | 82% | 1014.8 hPa | 0 mm | 1.34 m/s, 282° | 10 W/m² | - |
| 1777977490 | 13.89° C | 82% | 1014.8 hPa | 0 mm | 2.24 m/s, 353° | 10 W/m² | - |
| 1777976886 | 13.89° C | 82% | 1014.7 hPa | 0 mm | 0.89 m/s, 282° | 9 W/m² | - |
| 1777976283 | 14.44° C | 82% | 1014.4 hPa | 0 mm | 1.34 m/s, 324° | 6 W/m² | - |
| 1777975680 | 13.89° C | 82% | 1014.6 hPa | 0 mm | 1.34 m/s, 284° | 6 W/m² | - |
| 1777975079 | 13.89° C | 82% | 1014.3 hPa | 0 mm | 1.34 m/s, 263° | 7 W/m² | - |
| 1777974478 | 13.89° C | 82% | 1014.5 hPa | 0 mm | 1.34 m/s, 306° | 8 W/m² | - |
| 1777973876 | 14.44° C | 79% | 1014.4 hPa | 0 mm | 0.45 m/s, 263° | 9 W/m² | - |
| 1777973277 | 15° C | 78% | 1014.3 hPa | 0 mm | 0.45 m/s, 261° | 10 W/m² | - |
| 1777972672 | 15° C | 78% | 1014.2 hPa | 0 mm | 1.79 m/s, 303° | 6 W/m² | - |
| 1777972068 | 15° C | 77% | 1014.2 hPa | 0 mm | 1.34 m/s, 326° | 6 W/m² | - |
| 1777971463 | 15° C | 78% | 1014.1 hPa | 0 mm | 1.34 m/s, 297° | 8 W/m² | - |
| 1777970858 | 15° C | 78% | 1013.8 hPa | 0 mm | 1.79 m/s, 291° | 8 W/m² | - |
| 1777970254 | 15° C | 78% | 1013.6 hPa | 0 mm | 1.34 m/s, 317° | 7 W/m² | - |
| 1777969652 | 15° C | 78% | 1013.8 hPa | 0 mm | 2.24 m/s, 335° | 10 W/m² | - |
| 1777969051 | 15° C | 77% | 1014 hPa | 0 mm | 1.79 m/s, 288° | 9 W/m² | - |
| 1777968451 | 15° C | 77% | 1014.2 hPa | 0 mm | 2.24 m/s, 8° | 10 W/m² | - |
| 1777967848 | 14.44° C | 78% | 1014 hPa | 0 mm | 1.79 m/s, 315° | 9 W/m² | - |
| 1777967243 | 15° C | 78% | 1014.2 hPa | 0 mm | 1.34 m/s, 316° | 9 W/m² | - |
| 1777966643 | 15° C | 77% | 1014.5 hPa | 0 mm | 1.34 m/s, 281° | 6 W/m² | - |
| 1777966043 | 15° C | 76% | 1014.9 hPa | 0 mm | 1.34 m/s, 273° | 9 W/m² | - |
* Rain latest hour (hover to see other rain measurements)
** Current wind speed in m/s (hover to see current wind gust speed)